Location: Famechon
(49.7599°N, 2.0615°E)
Time: 20:48:59
(UTC+00:00)

Cosmos 1741 Rocket - Pass Details

Date: 31 March 2025
Orbit: 758 x 778 km, 74.0° (Epoch: 28 April)

Event Time Altitude Azimuth Distance (km) Brightness Sun altitude
Rises 00:18:43 0° 337° (NNW) 3,237 8.0 -35.8°
Reaches altitude 10° 00:21:07 10° 341° (NNW) 2,310 7.1 -35.8°
Enters shadow 00:23:40 29° 349° (N) 1,383 5.7 -35.7°
